Location: Bailleul
(50.3375°N, 2.8513°E)
Time: 07:37:50
(UTC+00:00)

Cosmos 1707 - Pass Details

Date: 16 June 2021
Orbit: 514 x 529 km, 82.5° (Epoch: 26 July)

Event Time Altitude Azimuth Distance (km) Brightness Sun altitude
Rises 20:54:08 0° 194° (SSW) 2,645 5.9 -6.7°
Reaches altitude 10° 20:56:15 10° 196° (SSW) 1,764 5.1 -6.9°
Maximum altitude 21:00:07 72° 281° (W) 561 3.0 -7.3°
Drops below altitude 10° 21:04:03 10° 6° (N) 1,787 6.2 -7.7°
Sets 21:06:13 0° 9° (N) 2,684 7.1 -7.9°
